| time (UTC) | temp C | wind direction | speed KPH | gust KPH | rain 1hr cm | rain 24hr cm | rain mn cm | humidity % | barometer mb |
| 20260502203728 | 21 | 276 | 4.8 | 11.3 | 0.03 | 0.03 | 0.03 | 90 | 1011.4 |
| 20260502203157 | 21 | 294 | 3.2 | 6.4 | 0.03 | 0.03 | 0.03 | 89 | 1011.1 |
| 20260502202158 | 21 | 302 | 4.8 | 9.7 | 0.03 | 0.03 | 0.03 | 89 | 1011.5 |
| 20260502200628 | 23 | 317 | 11.3 | 22.5 | 0.03 | 0.03 | 0.03 | 84 | 1011.9 |
| 20260502200058 | 25 | 303 | 12.9 | 22.5 | 0.00 | 0.00 | 0.00 | 75 | 1011.7 |
| 20260502195527 | 27 | 278 | 9.7 | 22.5 | 0.00 | 0.00 | 0.00 | 79 | 1011.8 |
| 20260502194958 | 27 | 279 | 6.4 | 14.5 | 0.00 | 0.00 | 0.00 | 78 | 1011.3 |
| 20260502194457 | 27 | 268 | 6.4 | 19.3 | 0.00 | 0.00 | 0.00 | 78 | 1011.2 |
| 20260502193958 | 28 | 263 | 8.0 | 19.3 | 0.00 | 0.00 | 0.00 | 78 | 1011.2 |
| 20260502193458 | 28 | 264 | 6.4 | 19.3 | 0.00 | 0.00 | 0.00 | 78 | 1011.2 |
| 20260502192957 | 28 | 260 | 6.4 | 19.3 | 0.00 | 0.00 | 0.00 | 77 | 1011.1 |
| 20260502192457 | 28 | 263 | 6.4 | 12.9 | 0.00 | 0.00 | 0.00 | 78 | 1011.0 |
| 20260502191927 | 28 | 268 | 6.4 | 12.9 | 0.00 | 0.00 | 0.00 | 78 | 1010.9 |
| 20260502191357 | 28 | 272 | 6.4 | 16.1 | 0.00 | 0.00 | 0.00 | 78 | 1011.1 |
| 20260502190827 | 28 | 275 | 8.0 | 17.7 | 0.00 | 0.00 | 0.00 | 77 | 1011.1 |
| 20260502190330 | 28 | 276 | 8.0 | 17.7 | 0.00 | 0.00 | 0.00 | 77 | 1011.3 |
| 20260502185757 | 28 | 272 | 8.0 | 16.1 | 0.00 | 0.00 | 0.00 | 76 | 1011.2 |
| 20260502184757 | 28 | 257 | 9.7 | 20.9 | 0.00 | 0.00 | 0.00 | 74 | 1011.0 |
| 20260502184228 | 28 | 259 | 9.7 | 17.7 | 0.00 | 0.00 | 0.00 | 72 | 1011.1 |
| 20260502183728 | 28 | 264 | 9.7 | 17.7 | 0.00 | 0.00 | 0.00 | 72 | 1011.0 |
| 20260502183157 | 28 | 266 | 9.7 | 22.5 | 0.00 | 0.00 | 0.00 | 71 | 1011.2 |
| 20260502182628 | 29 | 264 | 8.0 | 22.5 | 0.00 | 0.00 | 0.00 | 71 | 1011.3 |
| 20260502182127 | 29 | 261 | 8.0 | 20.9 | 0.00 | 0.00 | 0.00 | 71 | 1011.3 |
| 20260502181627 | 29 | 256 | 8.0 | 22.5 | 0.00 | 0.00 | 0.00 | 71 | 1011.2 |
| 20260502181128 | 29 | 255 | 8.0 | 22.5 | 0.00 | 0.00 | 0.00 | 71 | 1011.1 |
| 20260502180628 | 29 | 257 | 9.7 | 20.9 | 0.00 | 0.00 | 0.00 | 71 | 1011.1 |
| 20260502170158 | 28 | 271 | 4.8 | 12.9 | 0.00 | 0.00 | 0.00 | 73 | 1011.1 |
| 20260502163958 | 28 | 264 | 4.8 | 12.9 | 0.00 | 0.00 | 0.00 | 73 | 1011.3 |
| 20260502163458 | 29 | 250 | 4.8 | 17.7 | 0.00 | 0.00 | 0.00 | 73 | 1011.2 |
| 20260502161927 | 29 | 246 | 8.0 | 17.7 | 0.00 | 0.00 | 0.00 | 72 | 1011.5 |
| 20260502160927 | 29 | 246 | 6.4 | 20.9 | 0.00 | 0.00 | 0.00 | 73 | 1011.5 |
| 20260502152228 | 27 | 237 | 4.8 | 16.1 | 0.00 | 0.00 | 0.00 | 80 | 1011.7 |
| 20260502151727 | 27 | 249 | 4.8 | 16.1 | 0.00 | 0.00 | 0.00 | 80 | 1011.8 |
| 20260502151228 | 27 | 259 | 6.4 | 14.5 | 0.00 | 0.00 | 0.00 | 81 | 1011.8 |
| 20260502150728 | 27 | 254 | 4.8 | 14.5 | 0.00 | 0.00 | 0.00 | 81 | 1011.7 |
| 20260502150227 | 27 | 243 | 4.8 | 12.9 | 0.00 | 0.00 | 0.00 | 81 | 1011.7 |
| 20260502140128 | 25 | 239 | 6.4 | 16.1 | 0.00 | 0.00 | 0.00 | 84 | 1011.6 |
| 20260502123257 | 22 | 193 | 4.8 | 12.9 | 0.00 | 0.00 | 0.00 | 93 | 1010.8 |
| 20260502122157 | 22 | 197 | 3.2 | 9.7 | 0.00 | 0.00 | 0.00 | 94 | 1010.8 |
| 20260502120848 | 22 | 200 | 3.2 | 11.3 | 0.00 | 0.00 | 0.00 | 95 | 1010.6 |
| 20260502120628 | 22 | 200 | 3.2 | 11.3 | 0.00 | 0.00 | 0.00 | 95 | 1010.6 |
| 20260502115557 | 21 | 204 | 3.2 | 11.3 | 0.00 | 0.00 | 0.00 | 97 | 1010.9 |
| 20260502115027 | 21 | 206 | 4.8 | 11.3 | 0.00 | 0.00 | 0.00 | 98 | 1010.9 |
| 20260502114457 | 21 | 201 | 3.2 | 9.7 | 0.00 | 0.00 | 0.00 | 98 | 1010.7 |
| 20260502113957 | 21 | 208 | 3.2 | 8.0 | 0.00 | 0.00 | 0.00 | 98 | 1010.8 |
| 20260502113458 | 21 | 203 | 4.8 | 9.7 | 0.00 | 0.00 | 0.00 | 98 | 1010.8 |
| 20260502112927 | 21 | 197 | 4.8 | 11.3 | 0.00 | 0.00 | 0.00 | 98 | 1010.7 |
| 20260502112357 | 21 | 199 | 3.2 | 11.3 | 0.00 | 0.00 | 0.00 | 99 | 1010.7 |
| 20260502111858 | 21 | 190 | 3.2 | 9.7 | 0.00 | 0.00 | 0.00 | 99 | 1010.6 |
| 20260502111357 | 21 | 195 | 3.2 | 11.3 | 0.00 | 0.00 | 0.00 | 99 | 1010.7 |
| 20260502110828 | 21 | 207 | 3.2 | 11.3 | 0.00 | 0.00 | 0.00 | 99 | 1010.7 |
| 20260502105727 | 21 | 243 | 1.6 | 6.4 | 0.00 | 0.00 | 0.00 | 99 | 1010.6 |
| 20260502104227 | 21 | 235 | 1.6 | 6.4 | 0.00 | 0.00 | 0.00 | 99 | 1010.4 |
| 20260502103727 | 21 | 240 | 1.6 | 6.4 | 0.00 | 0.00 | 0.00 | 99 | 1010.3 |
| 20260502103227 | 21 | 228 | 1.6 | 6.4 | 0.00 | 0.00 | 0.00 | 99 | 1010.3 |
| 20260502102127 | 21 | 212 | 1.6 | 4.8 | 0.00 | 0.00 | 0.00 | 99 | 1010.1 |
| 20260502101628 | 21 | 210 | 1.6 | 4.8 | 0.00 | 0.00 | 0.00 | 99 | 1010.2 |
| 20260502101057 | 21 | 215 | 1.6 | 4.8 | 0.00 | 0.00 | 0.00 | 99 | 1010.2 |
| 20260502100558 | 21 | 211 | 1.6 | 4.8 | 0.00 | 0.00 | 0.00 | 99 | 1010.2 |
| 20260502091327 | 21 | 241 | 1.6 | 4.8 | 0.00 | 0.00 | 0.00 | 97 | 1010.8 |
| 20260502090757 | 21 | 242 | 3.2 | 4.8 | 0.00 | 0.00 | 0.00 | 97 | 1010.8 |
| 20260502090257 | 21 | 241 | 3.2 | 8.0 | 0.00 | 0.00 | 0.00 | 98 | 1010.9 |
| 20260502071227 | 21 | 237 | 1.6 | 3.2 | 0.00 | 0.00 | 0.00 | 96 | 1011.2 |
| 20260502070158 | 21 | 246 | 1.6 | 4.8 | 0.00 | 0.00 | 0.00 | 95 | 1011.1 |
| 20260502065627 | 21 | 247 | 3.2 | 4.8 | 0.00 | 0.00 | 0.00 | 95 | 1011.1 |
| 20260502065127 | 21 | 244 | 1.6 | 4.8 | 0.00 | 0.00 | 0.00 | 95 | 1011.2 |
| 20260502064627 | 21 | 244 | 1.6 | 4.8 | 0.00 | 0.00 | 0.00 | 95 | 1011.3 |
| 20260502064127 | 21 | 251 | 1.6 | 3.2 | 0.00 | 0.00 | 0.00 | 95 | 1011.3 |
| 20260502063127 | 21 | 236 | 1.6 | 4.8 | 0.00 | 0.00 | 0.00 | 95 | 1011.7 |
| 20260502061527 | 21 | 235 | 1.6 | 3.2 | 0.00 | 0.00 | 0.00 | 94 | 1011.5 |
| 20260502060957 | 21 | 236 | 1.6 | 3.2 | 0.00 | 0.00 | 0.00 | 94 | 1011.6 |
| 20260502060457 | 21 | 236 | 1.6 | 3.2 | 0.00 | 0.00 | 0.00 | 93 | 1011.7 |
| 20260502055957 | 21 | 236 | 1.6 | 3.2 | 0.00 | 0.00 | 0.00 | 93 | 1011.7 |
| 20260502055427 | 21 | 232 | 1.6 | 4.8 | 0.00 | 0.00 | 0.00 | 93 | 1011.7 |
| 20260502054927 | 21 | 227 | 0.0 | 4.8 | 0.00 | 0.00 | 0.00 | 93 | 1011.6 |
| 20260502054427 | 21 | 221 | 0.0 | 1.6 | 0.00 | 0.00 | 0.00 | 93 | 1011.7 |
| 20260502053858 | 21 | 221 | 0.0 | 1.6 | 0.00 | 0.00 | 0.00 | 93 | 1011.8 |
| 20260502053357 | 21 | 221 | 0.0 | 1.6 | 0.00 | 0.00 | 0.00 | 92 | 1011.7 |
| 20260502052257 | 21 | 221 | 0.0 | 1.6 | 0.00 | 0.00 | 0.00 | 92 | 1011.8 |
| 20260502051757 | 22 | 0 | 0.0 | 0.0 | 0.00 | 0.00 | 0.00 | 91 | 1011.9 |
| 20260502051227 | 22 | 0 | 0.0 | 0.0 | 0.00 | 0.00 | 0.00 | 91 | 1011.9 |
| 20260502050127 | 22 | 221 | 0.0 | 1.6 | 0.00 | 0.00 | 0.00 | 90 | 1011.9 |
| 20260502045627 | 22 | 221 | 0.0 | 1.6 | 0.00 | 0.00 | 0.00 | 90 | 1011.9 |
| 20260502045057 | 22 | 221 | 0.0 | 1.6 | 0.00 | 0.00 | 0.00 | 90 | 1011.9 |
| 20260502044557 | 22 | 0 | 0.0 | 0.0 | 0.00 | 0.00 | 0.00 | 89 | 1012.0 |
| 20260502043527 | 22 | 226 | 0.0 | 3.2 | 0.00 | 0.00 | 0.00 | 88 | 1012.0 |
| 20260502042957 | 22 | 275 | 0.0 | 3.2 | 0.00 | 0.00 | 0.00 | 88 | 1011.9 |
| 20260502042457 | 22 | 303 | 0.0 | 1.6 | 0.00 | 0.00 | 0.00 | 88 | 1012.0 |
| 20260502042144 | 22 | 0 | 0.0 | 0.0 | 0.00 | 0.00 | 0.00 | 87 | 1012.0 |
| 20260502041927 | 22 | 0 | 0.0 | 0.0 | 0.00 | 0.00 | 0.00 | 87 | 1012.0 |
| 20260502041357 | 22 | 0 | 0.0 | 0.0 | 0.00 | 0.00 | 0.00 | 87 | 1012.0 |
| 20260502040857 | 22 | 0 | 0.0 | 0.0 | 0.00 | 0.00 | 0.00 | 86 | 1011.9 |
| 20260502040357 | 23 | 0 | 0.0 | 0.0 | 0.00 | 0.00 | 0.00 | 86 | 1012.0 |
| 20260502035257 | 23 | 303 | 0.0 | 1.6 | 0.00 | 0.00 | 0.00 | 85 | 1012.1 |
| 20260502034757 | 23 | 303 | 0.0 | 1.6 | 0.00 | 0.00 | 0.00 | 85 | 1012.1 |
| 20260502034257 | 23 | 303 | 0.0 | 1.6 | 0.00 | 0.00 | 0.00 | 85 | 1012.0 |
| 20260502033727 | 23 | 307 | 0.0 | 1.6 | 0.00 | 0.00 | 0.00 | 84 | 1012.0 |
| 20260502033227 | 23 | 308 | 0.0 | 1.6 | 0.00 | 0.00 | 0.00 | 84 | 1012.0 |
| 20260502032727 | 23 | 0 | 0.0 | 0.0 | 0.00 | 0.00 | 0.00 | 83 | 1011.9 |
| 20260502031656 | 24 | 325 | 0.0 | 1.6 | 0.00 | 0.00 | 0.00 | 82 | 1012.0 |
| 20260502031157 | 24 | 325 | 0.0 | 1.6 | 0.00 | 0.00 | 0.00 | 81 | 1011.8 |
| 20260502030657 | 24 | 326 | 0.0 | 3.2 | 0.00 | 0.00 | 0.00 | 81 | 1011.9 |
| 20260502030157 | 24 | 316 | 0.0 | 3.2 | 0.00 | 0.00 | 0.00 | 80 | 1011.9 |
| 20260502025627 | 24 | 296 | 1.6 | 4.8 | 0.00 | 0.00 | 0.00 | 80 | 1011.9 |
| 20260502025057 | 25 | 303 | 0.0 | 4.8 | 0.00 | 0.00 | 0.00 | 79 | 1011.8 |
| 20260502024527 | 25 | 317 | 0.0 | 3.2 | 0.00 | 0.00 | 0.00 | 78 | 1011.9 |
| 20260502023957 | 25 | 298 | 1.6 | 3.2 | 0.00 | 0.00 | 0.00 | 78 | 1011.9 |
| 20260502023457 | 25 | 304 | 1.6 | 4.8 | 0.00 | 0.00 | 0.00 | 77 | 1011.9 |
| 20260502022957 | 25 | 317 | 3.2 | 4.8 | 0.00 | 0.00 | 0.00 | 77 | 1011.8 |
| 20260502022457 | 25 | 314 | 3.2 | 3.2 | 0.00 | 0.00 | 0.00 | 77 | 1011.9 |
| 20260502021929 | 25 | 314 | 3.2 | 6.4 | 0.00 | 0.00 | 0.00 | 76 | 1011.7 |
| 20260502020427 | 26 | 326 | 3.2 | 6.4 | 0.00 | 0.00 | 0.00 | 75 | 1011.6 |
| 20260502015857 | 26 | 329 | 3.2 | 4.8 | 0.00 | 0.00 | 0.00 | 73 | 1011.8 |
| 20260502015356 | 26 | 314 | 1.6 | 3.2 | 0.00 | 0.00 | 0.00 | 73 | 1011.7 |
| 20260502014827 | 26 | 292 | 1.6 | 4.8 | 0.00 | 0.00 | 0.00 | 72 | 1011.5 |
| 20260502014326 | 26 | 290 | 1.6 | 4.8 | 0.00 | 0.00 | 0.00 | 70 | 1011.4 |
| 20260502013756 | 26 | 301 | 1.6 | 4.8 | 0.00 | 0.00 | 0.00 | 70 | 1011.3 |
| 20260502013257 | 26 | 297 | 1.6 | 8.0 | 0.00 | 0.00 | 0.00 | 69 | 1011.1 |
| 20260502012727 | 26 | 290 | 3.2 | 8.0 | 0.00 | 0.00 | 0.00 | 68 | 1011.1 |
| 20260502012227 | 26 | 284 | 3.2 | 9.7 | 0.00 | 0.00 | 0.00 | 68 | 1011.1 |
| 20260502011656 | 26 | 281 | 3.2 | 9.7 | 0.00 | 0.00 | 0.00 | 67 | 1011.0 |
| 20260502011156 | 26 | 278 | 4.8 | 11.3 | 0.00 | 0.00 | 0.00 | 66 | 1011.0 |
| 20260502010730 | 27 | 278 | 4.8 | 11.3 | 0.00 | 0.00 | 0.00 | 65 | 1011.0 |
| 20260502010626 | 27 | 278 | 4.8 | 11.3 | 0.00 | 0.00 | 0.00 | 65 | 1011.0 |
| 20260502010057 | 27 | 275 | 4.8 | 12.9 | 0.00 | 0.00 | 0.00 | 64 | 1010.9 |
| 20260502005557 | 27 | 274 | 4.8 | 12.9 | 0.00 | 0.00 | 0.00 | 63 | 1010.9 |
| 20260502003957 | 27 | 264 | 3.2 | 8.0 | 0.00 | 0.00 | 0.00 | 61 | 1010.7 |
| 20260502003456 | 27 | 267 | 4.8 | 8.0 | 0.00 | 0.00 | 0.00 | 60 | 1010.6 |
| 20260502002927 | 27 | 267 | 3.2 | 6.4 | 0.00 | 0.00 | 0.00 | 60 | 1010.6 |
| 20260502002356 | 28 | 267 | 4.8 | 11.3 | 0.00 | 0.00 | 0.00 | 59 | 1010.4 |
| 20260502001826 | 28 | 268 | 4.8 | 11.3 | 0.00 | 0.00 | 0.00 | 58 | 1010.4 |
| 20260502001257 | 28 | 270 | 4.8 | 9.7 | 0.00 | 0.00 | 0.00 | 58 | 1010.2 |
| 20260502000756 | 28 | 269 | 4.8 | 8.0 | 0.00 | 0.00 | 0.00 | 58 | 1010.2 |
| 20260502000227 | 28 | 272 | 3.2 | 8.0 | 0.00 | 0.00 | 0.00 | 58 | 1010.2 |
| 20260501235727 | 28 | 275 | 3.2 | 6.4 | 0.00 | 0.00 | 0.00 | 57 | 1010.1 |
| 20260501235156 | 28 | 274 | 4.8 | 9.7 | 0.00 | 0.00 | 0.00 | 56 | 1010.0 |
| 20260501234656 | 29 | 273 | 4.8 | 12.9 | 0.00 | 0.00 | 0.00 | 56 | 1010.0 |
| 20260501233626 | 30 | 288 | 3.2 | 9.7 | 0.00 | 0.00 | 0.00 | 55 | 1009.9 |
| 20260501233126 | 30 | 282 | 3.2 | 6.4 | 0.00 | 0.00 | 0.00 | 54 | 1009.9 |
| 20260501232557 | 30 | 271 | 3.2 | 4.8 | 0.00 | 0.00 | 0.00 | 54 | 1009.8 |
| 20260501232057 | 30 | 270 | 4.8 | 11.3 | 0.00 | 0.00 | 0.00 | 53 | 1009.8 |
| 20260501231527 | 30 | 264 | 6.4 | 16.1 | 0.00 | 0.00 | 0.00 | 53 | 1009.8 |
| 20260501230957 | 30 | 265 | 4.8 | 16.1 | 0.00 | 0.00 | 0.00 | 52 | 1009.7 |
| 20260501225956 | 30 | 269 | 4.8 | 12.9 | 0.00 | 0.00 | 0.00 | 52 | 1009.7 |
| 20260501225427 | 30 | 264 | 6.4 | 11.3 | 0.00 | 0.00 | 0.00 | 52 | 1009.5 |
| 20260501224427 | 30 | 258 | 6.4 | 14.5 | 0.00 | 0.00 | 0.00 | 52 | 1009.4 |
| 20260501224314 | 30 | 261 | 6.4 | 12.9 | 0.00 | 0.00 | 0.00 | 52 | 1009.5 |
| 20260501223856 | 30 | 261 | 6.4 | 12.9 | 0.00 | 0.00 | 0.00 | 52 | 1009.5 |
| 20260501222326 | 30 | 257 | 4.8 | 12.9 | 0.00 | 0.00 | 0.00 | 52 | 1009.5 |
| 20260501221257 | 31 | 248 | 6.4 | 11.3 | 0.00 | 0.00 | 0.00 | 51 | 1009.4 |
| 20260501220227 | 31 | 248 | 6.4 | 14.5 | 0.00 | 0.00 | 0.00 | 50 | 1009.3 |
| 20260501215726 | 31 | 250 | 4.8 | 14.5 | 0.00 | 0.00 | 0.00 | 49 | 1009.3 |
| 20260501215226 | 31 | 261 | 4.8 | 14.5 | 0.00 | 0.00 | 0.00 | 49 | 1009.3 |
| 20260501214656 | 31 | 259 | 6.4 | 14.5 | 0.00 | 0.00 | 0.00 | 48 | 1009.3 |
| 20260501214126 | 31 | 258 | 4.8 | 12.9 | 0.00 | 0.00 | 0.00 | 48 | 1009.3 |
| 20260501213556 | 31 | 248 | 4.8 | 17.7 | 0.00 | 0.00 | 0.00 | 50 | 1009.3 |
| 20260501213057 | 31 | 243 | 6.4 | 17.7 | 0.00 | 0.00 | 0.00 | 50 | 1009.3 |
| 20260501212526 | 31 | 232 | 6.4 | 19.3 | 0.00 | 0.00 | 0.00 | 50 | 1009.3 |
| 20260501212026 | 31 | 231 | 6.4 | 19.3 | 0.00 | 0.00 | 0.00 | 50 | 1009.3 |
| 20260501211633 | 31 | 237 | 6.4 | 17.7 | 0.00 | 0.00 | 0.00 | 49 | 1009.2 |
| 20260501211526 | 31 | 237 | 6.4 | 17.7 | 0.00 | 0.00 | 0.00 | 49 | 1009.2 |
| 20260501210956 | 31 | 230 | 4.8 | 16.1 | 0.00 | 0.00 | 0.00 | 49 | 1009.4 |
| 20260501210426 | 31 | 239 | 4.8 | 14.5 | 0.00 | 0.00 | 0.00 | 49 | 1009.4 |
| 20260501205927 | 31 | 245 | 4.8 | 14.5 | 0.00 | 0.00 | 0.00 | 50 | 1009.4 |
| 20260501205357 | 32 | 256 | 4.8 | 14.5 | 0.00 | 0.00 | 0.00 | 49 | 1009.3 |
| 20260501204827 | 32 | 258 | 4.8 | 14.5 | 0.00 | 0.00 | 0.00 | 48 | 1009.2 |
| 20260501204256 | 32 | 242 | 6.4 | 17.7 | 0.00 | 0.00 | 0.00 | 47 | 1009.3 |
| 20260501203756 | 32 | 237 | 8.0 | 17.7 | 0.00 | 0.00 | 0.00 | 47 | 1009.3 |